Location: Sungai Liu
(2.3667°N, 113.8667°E)
Time: 13:23:55
(UTC+00:00)

TSX-5 - Pass Details

Date: 20 May 2022
Orbit: 399 x 1298 km, 68.9° (Epoch: 04 July)

Event Time Altitude Azimuth Distance (km) Brightness Sun altitude
Rises 21:43:18 0° 193° (SSW) 2,619 6.9 -8.0°
Reaches altitude 10° 21:45:37 10° 189° (S) 1,630 5.9 -7.5°
Maximum altitude 21:49:05 61° 108° (ESE) 486 3.8 -6.7°
Drops below altitude 10° 21:52:09 10° 27° (NNE) 1,450 6.8 -6.0°
Sets 21:54:06 0° 23° (NNE) 2,292 7.7 -5.5°
